| time (UTC) | temp F | wind direction | speed MPH | gust MPH | rain 1hr in | rain 24hr in | rain mn in | humidity % | barometer mb |
| 20260505064506 | 59 | 65 | 1.0 | 4.0 | 0.00 | 0.00 | 0.00 | 79 | 1010.9 |
| 20260505064005 | 59 | 68 | 1.0 | 3.0 | 0.00 | 0.00 | 0.00 | 79 | 1010.9 |
| 20260505063506 | 59 | 84 | 1.0 | 4.0 | 0.00 | 0.00 | 0.00 | 79 | 1010.8 |
| 20260505063005 | 59 | 87 | 1.0 | 4.0 | 0.00 | 0.00 | 0.00 | 79 | 1010.8 |
| 20260505062506 | 59 | 82 | 1.0 | 4.0 | 0.00 | 0.00 | 0.00 | 78 | 1010.7 |
| 20260505062006 | 59 | 91 | 1.0 | 4.0 | 0.00 | 0.00 | 0.00 | 78 | 1010.7 |
| 20260505061506 | 60 | 86 | 1.0 | 2.0 | 0.00 | 0.00 | 0.00 | 79 | 1010.6 |
| 20260505061005 | 60 | 67 | 1.0 | 2.0 | 0.00 | 0.00 | 0.00 | 78 | 1010.6 |
| 20260505060505 | 60 | 68 | 1.0 | 2.0 | 0.00 | 0.00 | 0.00 | 78 | 1010.5 |
| 20260505060006 | 60 | 49 | 1.0 | 2.0 | 0.00 | 0.00 | 0.00 | 77 | 1010.4 |
| 20260505055505 | 60 | 43 | 0.0 | 2.0 | 0.00 | 0.00 | 0.00 | 77 | 1010.4 |
| 20260505054005 | 61 | 45 | 0.0 | 3.0 | 0.00 | 0.00 | 0.00 | 75 | 1010.2 |
| 20260505053505 | 61 | 52 | 1.0 | 3.0 | 0.00 | 0.00 | 0.00 | 76 | 1010.3 |
| 20260505053005 | 61 | 50 | 1.0 | 2.0 | 0.00 | 0.00 | 0.00 | 75 | 1010.2 |
| 20260505052506 | 61 | 48 | 1.0 | 2.0 | 0.00 | 0.00 | 0.00 | 75 | 1010.1 |
| 20260505052006 | 62 | 36 | 1.0 | 2.0 | 0.00 | 0.00 | 0.00 | 75 | 1010.0 |
| 20260505051005 | 62 | 59 | 1.0 | 3.0 | 0.00 | 0.00 | 0.00 | 75 | 1009.9 |
| 20260505050506 | 62 | 58 | 1.0 | 2.0 | 0.00 | 0.00 | 0.00 | 74 | 1009.9 |
| 20260505041506 | 65 | 41 | 1.0 | 2.0 | 0.00 | 0.00 | 0.00 | 69 | 1009.4 |
| 20260505041005 | 65 | 47 | 0.0 | 2.0 | 0.00 | 0.00 | 0.00 | 67 | 1009.4 |
| 20260505035505 | 66 | 25 | 0.0 | 1.0 | 0.00 | 0.00 | 0.00 | 65 | 1009.2 |
| 20260505035006 | 67 | 239 | 0.0 | 1.0 | 0.00 | 0.00 | 0.00 | 64 | 1009.1 |
| 20260505034506 | 67 | 274 | 0.0 | 1.0 | 0.00 | 0.00 | 0.00 | 63 | 1009.0 |
| 20260505034006 | 68 | 324 | 0.0 | 2.0 | 0.00 | 0.00 | 0.00 | 63 | 1008.9 |
| 20260505033506 | 68 | 258 | 0.0 | 2.0 | 0.00 | 0.00 | 0.00 | 63 | 1008.8 |
| 20260505033005 | 68 | 236 | 0.0 | 2.0 | 0.00 | 0.00 | 0.00 | 62 | 1008.8 |
| 20260505032505 | 69 | 248 | 1.0 | 2.0 | 0.00 | 0.00 | 0.00 | 62 | 1008.8 |
| 20260505032006 | 69 | 26 | 1.0 | 2.0 | 0.00 | 0.00 | 0.00 | 62 | 1008.8 |
| 20260505031506 | 69 | 22 | 0.0 | 2.0 | 0.00 | 0.00 | 0.00 | 62 | 1008.8 |
| 20260505031005 | 70 | 250 | 1.0 | 2.0 | 0.00 | 0.00 | 0.00 | 62 | 1008.7 |
| 20260505030505 | 70 | 237 | 1.0 | 3.0 | 0.00 | 0.00 | 0.00 | 61 | 1008.6 |
| 20260505025506 | 71 | 233 | 2.0 | 4.0 | 0.00 | 0.00 | 0.00 | 59 | 1008.6 |
| 20260505025006 | 71 | 234 | 2.0 | 4.0 | 0.00 | 0.00 | 0.00 | 56 | 1008.5 |
| 20260505024506 | 72 | 238 | 1.0 | 3.0 | 0.00 | 0.00 | 0.00 | 57 | 1008.4 |
| 20260505024006 | 72 | 229 | 2.0 | 3.0 | 0.00 | 0.00 | 0.00 | 55 | 1008.4 |
| 20260505023505 | 72 | 224 | 2.0 | 3.0 | 0.00 | 0.00 | 0.00 | 53 | 1008.3 |
| 20260505023005 | 73 | 225 | 2.0 | 4.0 | 0.00 | 0.00 | 0.00 | 53 | 1008.3 |
| 20260505022505 | 73 | 229 | 2.0 | 4.0 | 0.00 | 0.00 | 0.00 | 52 | 1008.3 |
| 20260505022005 | 73 | 245 | 2.0 | 4.0 | 0.00 | 0.00 | 0.00 | 51 | 1008.4 |
| 20260505021505 | 73 | 256 | 3.0 | 5.0 | 0.00 | 0.00 | 0.00 | 50 | 1008.4 |
| 20260505021005 | 74 | 259 | 3.0 | 6.0 | 0.00 | 0.00 | 0.00 | 50 | 1008.5 |
| 20260505020505 | 74 | 261 | 2.0 | 6.0 | 0.00 | 0.00 | 0.00 | 49 | 1008.4 |
| 20260505020006 | 74 | 256 | 2.0 | 5.0 | 0.00 | 0.00 | 0.00 | 49 | 1008.4 |
| 20260505015505 | 74 | 253 | 2.0 | 5.0 | 0.00 | 0.00 | 0.00 | 49 | 1008.5 |
| 20260505015005 | 75 | 257 | 2.0 | 5.0 | 0.00 | 0.00 | 0.00 | 48 | 1008.4 |
| 20260505014505 | 76 | 267 | 2.0 | 8.0 | 0.00 | 0.00 | 0.00 | 48 | 1008.4 |
| 20260505013506 | 76 | 264 | 3.0 | 10.0 | 0.00 | 0.00 | 0.00 | 46 | 1008.4 |
| 20260505012505 | 77 | 275 | 2.0 | 6.0 | 0.00 | 0.00 | 0.00 | 47 | 1008.3 |
| 20260505012005 | 77 | 324 | 2.0 | 5.0 | 0.00 | 0.00 | 0.00 | 44 | 1008.3 |
| 20260505011505 | 78 | 288 | 2.0 | 4.0 | 0.00 | 0.00 | 0.00 | 42 | 1008.4 |
| 20260505011005 | 78 | 233 | 3.0 | 5.0 | 0.00 | 0.00 | 0.00 | 41 | 1008.3 |
| 20260505010505 | 78 | 228 | 2.0 | 6.0 | 0.00 | 0.00 | 0.00 | 41 | 1008.4 |
| 20260505010005 | 78 | 244 | 2.0 | 6.0 | 0.00 | 0.00 | 0.00 | 41 | 1008.5 |
| 20260505005005 | 78 | 229 | 3.0 | 7.0 | 0.00 | 0.00 | 0.00 | 40 | 1008.4 |
| 20260505004505 | 78 | 237 | 3.0 | 7.0 | 0.00 | 0.00 | 0.00 | 41 | 1008.5 |
| 20260505004005 | 78 | 241 | 3.0 | 6.0 | 0.00 | 0.00 | 0.00 | 41 | 1008.5 |
| 20260505003505 | 78 | 225 | 2.0 | 5.0 | 0.00 | 0.00 | 0.00 | 43 | 1008.5 |
| 20260505003005 | 78 | 241 | 2.0 | 5.0 | 0.00 | 0.00 | 0.00 | 43 | 1008.5 |
| 20260505002505 | 78 | 236 | 2.0 | 6.0 | 0.00 | 0.00 | 0.00 | 41 | 1008.6 |
| 20260505001504 | 78 | 236 | 2.0 | 5.0 | 0.00 | 0.00 | 0.00 | 41 | 1008.6 |
| 20260505000505 | 79 | 271 | 2.0 | 7.0 | 0.00 | 0.00 | 0.00 | 42 | 1008.6 |
| 20260505000005 | 78 | 279 | 2.0 | 5.0 | 0.00 | 0.00 | 0.00 | 43 | 1008.6 |
| 20260504235505 | 78 | 219 | 2.0 | 6.0 | 0.00 | 0.00 | 0.00 | 44 | 1008.6 |
| 20260504235005 | 79 | 227 | 4.0 | 7.0 | 0.00 | 0.00 | 0.00 | 42 | 1008.7 |
| 20260504234505 | 79 | 237 | 4.0 | 9.0 | 0.00 | 0.00 | 0.00 | 43 | 1008.8 |
| 20260504234004 | 79 | 239 | 3.0 | 9.0 | 0.00 | 0.00 | 0.00 | 42 | 1008.8 |
| 20260504233505 | 79 | 213 | 2.0 | 5.0 | 0.00 | 0.00 | 0.00 | 42 | 1008.7 |
| 20260504232005 | 79 | 285 | 2.0 | 7.0 | 0.00 | 0.00 | 0.00 | 40 | 1008.8 |
| 20260504231505 | 79 | 251 | 3.0 | 8.0 | 0.00 | 0.00 | 0.00 | 43 | 1008.8 |
| 20260504231005 | 79 | 253 | 3.0 | 8.0 | 0.00 | 0.00 | 0.00 | 43 | 1008.8 |
| 20260504230505 | 78 | 237 | 2.0 | 7.0 | 0.00 | 0.00 | 0.00 | 44 | 1008.8 |
| 20260504230005 | 78 | 216 | 2.0 | 7.0 | 0.00 | 0.00 | 0.00 | 42 | 1008.8 |
| 20260504225005 | 78 | 268 | 3.0 | 8.0 | 0.00 | 0.00 | 0.00 | 43 | 1009.0 |
| 20260504224504 | 78 | 230 | 3.0 | 8.0 | 0.00 | 0.00 | 0.00 | 44 | 1009.0 |
| 20260504224005 | 78 | 219 | 3.0 | 8.0 | 0.00 | 0.00 | 0.00 | 42 | 1009.1 |
| 20260504223505 | 78 | 234 | 4.0 | 9.0 | 0.00 | 0.00 | 0.00 | 43 | 1009.1 |
| 20260504223005 | 78 | 236 | 5.0 | 10.0 | 0.00 | 0.00 | 0.00 | 44 | 1009.3 |
| 20260504222505 | 78 | 229 | 4.0 | 10.0 | 0.00 | 0.00 | 0.00 | 44 | 1009.4 |
| 20260504222005 | 79 | 227 | 3.0 | 7.0 | 0.00 | 0.00 | 0.00 | 44 | 1009.3 |
| 20260504221505 | 79 | 237 | 3.0 | 9.0 | 0.00 | 0.00 | 0.00 | 44 | 1009.4 |
| 20260504221006 | 79 | 229 | 4.0 | 9.0 | 0.00 | 0.00 | 0.00 | 43 | 1009.5 |
| 20260504220505 | 79 | 211 | 3.0 | 8.0 | 0.00 | 0.00 | 0.00 | 43 | 1009.6 |
| 20260504220005 | 79 | 219 | 3.0 | 8.0 | 0.00 | 0.00 | 0.00 | 43 | 1009.6 |
| 20260504215505 | 79 | 228 | 2.0 | 6.0 | 0.00 | 0.00 | 0.00 | 42 | 1009.6 |
| 20260504215005 | 79 | 225 | 3.0 | 6.0 | 0.00 | 0.00 | 0.00 | 42 | 1009.7 |
| 20260504214505 | 80 | 221 | 3.0 | 8.0 | 0.00 | 0.00 | 0.00 | 42 | 1009.7 |
| 20260504214005 | 80 | 227 | 3.0 | 9.0 | 0.00 | 0.00 | 0.00 | 42 | 1009.7 |
| 20260504213505 | 80 | 235 | 4.0 | 11.0 | 0.00 | 0.00 | 0.00 | 43 | 1009.7 |
| 20260504213005 | 80 | 239 | 4.0 | 11.0 | 0.00 | 0.00 | 0.00 | 43 | 1009.7 |
| 20260504212005 | 80 | 242 | 3.0 | 9.0 | 0.00 | 0.00 | 0.00 | 40 | 1009.9 |
| 20260504211505 | 80 | 246 | 3.0 | 8.0 | 0.00 | 0.00 | 0.00 | 41 | 1009.8 |
| 20260504211005 | 81 | 237 | 3.0 | 10.0 | 0.00 | 0.00 | 0.00 | 39 | 1009.9 |
| 20260504210505 | 81 | 239 | 3.0 | 10.0 | 0.00 | 0.00 | 0.00 | 37 | 1009.8 |
| 20260504210005 | 80 | 234 | 3.0 | 7.0 | 0.00 | 0.00 | 0.00 | 37 | 1009.9 |
| 20260504205504 | 80 | 198 | 3.0 | 6.0 | 0.00 | 0.00 | 0.00 | 37 | 1009.9 |
| 20260504205005 | 80 | 219 | 3.0 | 6.0 | 0.00 | 0.00 | 0.00 | 38 | 1009.9 |
| 20260504204504 | 80 | 222 | 2.0 | 7.0 | 0.00 | 0.00 | 0.00 | 37 | 1009.9 |
| 20260504203504 | 80 | 122 | 2.0 | 7.0 | 0.00 | 0.00 | 0.00 | 37 | 1009.9 |
| 20260504203005 | 79 | 116 | 2.0 | 7.0 | 0.00 | 0.00 | 0.00 | 36 | 1010.0 |
| 20260504202505 | 79 | 137 | 2.0 | 5.0 | 0.00 | 0.00 | 0.00 | 37 | 1010.0 |
| 20260504202005 | 79 | 216 | 3.0 | 6.0 | 0.00 | 0.00 | 0.00 | 37 | 1010.0 |
| 20260504201505 | 79 | 207 | 2.0 | 7.0 | 0.00 | 0.00 | 0.00 | 36 | 1010.0 |
| 20260504201005 | 79 | 172 | 2.0 | 7.0 | 0.00 | 0.00 | 0.00 | 38 | 1010.0 |
| 20260504200504 | 78 | 184 | 2.0 | 8.0 | 0.00 | 0.00 | 0.00 | 41 | 1010.1 |
| 20260504195504 | 78 | 124 | 2.0 | 7.0 | 0.00 | 0.00 | 0.00 | 42 | 1010.1 |
| 20260504195005 | 77 | 182 | 2.0 | 7.0 | 0.00 | 0.00 | 0.00 | 40 | 1010.0 |
| 20260504194504 | 78 | 190 | 2.0 | 7.0 | 0.00 | 0.00 | 0.00 | 41 | 1010.1 |
| 20260504193505 | 78 | 181 | 2.0 | 7.0 | 0.00 | 0.00 | 0.00 | 43 | 1010.1 |
| 20260504192005 | 76 | 226 | 2.0 | 6.0 | 0.00 | 0.00 | 0.00 | 46 | 1010.2 |
| 20260504191505 | 76 | 195 | 2.0 | 6.0 | 0.00 | 0.00 | 0.00 | 44 | 1010.2 |
| 20260504191004 | 75 | 192 | 2.0 | 5.0 | 0.00 | 0.00 | 0.00 | 47 | 1010.2 |
| 20260504190005 | 74 | 221 | 3.0 | 5.0 | 0.00 | 0.00 | 0.00 | 46 | 1010.2 |
| 20260504185505 | 74 | 211 | 2.0 | 5.0 | 0.00 | 0.00 | 0.00 | 46 | 1010.3 |
| 20260504185004 | 73 | 214 | 2.0 | 5.0 | 0.00 | 0.00 | 0.00 | 43 | 1010.4 |
| 20260504184505 | 73 | 247 | 2.0 | 7.0 | 0.00 | 0.00 | 0.00 | 44 | 1010.5 |
| 20260504184005 | 72 | 245 | 2.0 | 7.0 | 0.00 | 0.00 | 0.00 | 44 | 1010.5 |
| 20260504183005 | 72 | 247 | 3.0 | 5.0 | 0.00 | 0.00 | 0.00 | 48 | 1010.5 |
| 20260504182505 | 71 | 240 | 3.0 | 6.0 | 0.00 | 0.00 | 0.00 | 49 | 1010.5 |
| 20260504182005 | 71 | 247 | 3.0 | 6.0 | 0.00 | 0.00 | 0.00 | 47 | 1010.6 |
| 20260504181505 | 71 | 267 | 3.0 | 7.0 | 0.00 | 0.00 | 0.00 | 48 | 1010.6 |
| 20260504181005 | 70 | 237 | 3.0 | 8.0 | 0.00 | 0.00 | 0.00 | 49 | 1010.6 |
| 20260504180504 | 70 | 227 | 3.0 | 8.0 | 0.00 | 0.00 | 0.00 | 50 | 1010.6 |
| 20260504180005 | 70 | 226 | 2.0 | 6.0 | 0.00 | 0.00 | 0.00 | 49 | 1010.6 |
| 20260504175505 | 70 | 249 | 2.0 | 4.0 | 0.00 | 0.00 | 0.00 | 50 | 1010.6 |
| 20260504175005 | 69 | 265 | 2.0 | 7.0 | 0.00 | 0.00 | 0.00 | 51 | 1010.6 |
| 20260504174505 | 69 | 267 | 3.0 | 7.0 | 0.00 | 0.00 | 0.00 | 50 | 1010.5 |
| 20260504174004 | 69 | 259 | 3.0 | 7.0 | 0.00 | 0.00 | 0.00 | 52 | 1010.6 |
| 20260504173005 | 68 | 237 | 3.0 | 7.0 | 0.00 | 0.00 | 0.00 | 60 | 1010.6 |
| 20260504172505 | 67 | 230 | 3.0 | 7.0 | 0.00 | 0.00 | 0.00 | 61 | 1010.6 |
| 20260504172004 | 67 | 229 | 3.0 | 6.0 | 0.00 | 0.00 | 0.00 | 63 | 1010.6 |
| 20260504170505 | 66 | 225 | 2.0 | 5.0 | 0.00 | 0.00 | 0.00 | 63 | 1010.6 |
| 20260504150505 | 61 | 325 | 0.0 | 2.0 | 0.00 | 0.00 | 0.00 | 75 | 1010.2 |
| 20260504141004 | 53 | 85 | 0.0 | 1.0 | 0.00 | 0.00 | 0.00 | 88 | 1009.9 |
| 20260504140504 | 52 | 85 | 0.0 | 1.0 | 0.00 | 0.00 | 0.00 | 88 | 1009.8 |
| 20260504110505 | 52 | 75 | 0.0 | 1.0 | 0.00 | 0.00 | 0.00 | 84 | 1009.0 |
| 20260504100504 | 53 | 238 | 0.0 | 2.0 | 0.00 | 0.00 | 0.00 | 82 | 1008.8 |
| 20260504082005 | 55 | 293 | 0.0 | 1.0 | 0.00 | 0.00 | 0.00 | 79 | 1008.7 |
| 20260504081505 | 55 | 257 | 0.0 | 2.0 | 0.00 | 0.00 | 0.00 | 78 | 1008.7 |
| 20260504081006 | 55 | 246 | 0.0 | 2.0 | 0.00 | 0.00 | 0.00 | 77 | 1008.8 |
| 20260504080506 | 55 | 326 | 0.0 | 1.0 | 0.00 | 0.00 | 0.00 | 77 | 1008.7 |